Wind_Speed
7 9 10 12 14 14 15 15 15 15 16 16 16 16 15 15 15 15 16 17 17 18 18 18 19 19 20 20 20 21 21 22 22 22 22 22 22 23 23 23 23 23 23
7 9 10 12 12 14 14 15 15 15 16 16 16 16 15 15 15 16 17 18 18 19 19 20 20 21 22 23 23 24 25 25 25 26 26 26 26 26 27 26 26 26 27
7 8 8 9 11 13 15 16 16 15 15 16 16 16 17 18 18 18 19 19 20 21 21 22 23 23 24 25 26 26 27 27 28 29 29 29 30 30 30 30 30 30 30
8 8 9 10 12 13 14 16 16 16 16 17 17 17 18 19 20 20 20 21 22 23 24 24 25 25 26 28 28 29 30 30 31 31 31 32 32 32 32 33 33 33 33
10 11 10 11 11 12 13 14 15 16 17 17 18 19 20 21 21 22 22 22 23 24 25 26 27 27 29 30 31 32 32 33 33 33 34 34 35 35 35 35 36 36 36
11 11 12 12 12 13 13 14 15 16 17 18 19 21 22 22 22 23 23 24 24 25 26 27 28 29 30 31 33 33 34 34 35 36 36 37 38 39 39 39 39 39 38
12 11 12 13 13 14 14 15 16 17 18 19 20 21 21 22 23 24 24 25 26 27 28 29 30 31 32 33 34 35 36 37 38 39 39 39 40 41 41 42 42 42 42
13 13 13 13 13 15 16 16 17 18 19 20 20 20 21 23 23 24 25 26 27 29 30 31 32 33 34 35 36 37 37 38 40 41 41 41 42 43 44 45 45 45 45
14 15 15 16 16 16 17 17 18 19 19 20 21 22 23 24 25 26 28 29 30 31 32 33 34 35 36 37 38 39 40 41 42 43 43 44 45 46 47 47 47 47 46
17 17 17 18 18 18 18 18 19 19 20 21 22 24 26 26 27 28 30 31 32 33 35 36 37 38 39 40 41 42 43 44 45 46 46 46 47 48 49 49 50 50 49
19 19 19 19 18 19 20 20 21 21 22 24 24 25 27 29 30 31 32 33 34 35 36 37 39 40 41 43 44 45 46 46 47 48 49 49 49 49 50 51 51 51 52
21 22 22 21 21 23 24 24 24 25 26 27 27 28 29 30 31 33 35 36 37 37 38 40 41 43 44 45 46 47 48 49 50 50 51 51 52 52 52 53 53 53 53
24 24 24 24 25 25 26 27 27 28 28 29 30 31 31 32 34 35 36 37 38 39 40 42 43 44 46 47 48 49 50 51 51 52 52 53 54 54 54 54 54 55 55
26 26 26 26 26 27 28 28 29 30 31 32 33 34 34 35 36 37 38 39 41 42 43 44 45 46 47 49 50 51 52 53 53 54 54 55 55 55 55 55 55 55 55
26 26 26 27 27 28 28 29 31 32 33 34 35 36 37 37 38 40 41 42 43 44 45 47 48 49 50 51 52 53 54 54 54 54 55 55 55 55 56 56 56 56 56
26 26 26 27 28 29 30 31 32 33 34 35 35 36 38 39 40 41 43 44 45 47 48 49 50 51 52 53 54 55 55 55 55 55 55 55 56 56 56 56 56 55 55
26 26 27 28 29 31 31 32 33 34 35 35 37 38 39 41 42 44 45 47 48 49 50 51 52 52 53 54 54 55 55 54 54 55 55 55 55 55 54 54 54 54 53
25 26 27 29 30 32 33 33 34 36 36 37 38 40 41 43 44 45 47 48 49 50 50 51 52 53 53 54 54 54 54 54 53 52 52 51 51 52 51 51 51 51 50
26 27 29 30 32 33 34 35 36 37 38 39 40 41 42 43 44 45 47 48 48 49 50 51 52 52 53 53 53 52 52 51 50 49 48 48 47 47 47 46 46 45 44
28 29 30 31 32 33 34 35 36 37 39 40 41 42 43 44 45 46 46 47 47 48 49 50 50 50 50 49 48 48 47 46 46 46 45 45 44 43 42 41 40 39 39
28 29 29 30 31 32 34 35 36 38 39 40 41 42 44 45 45 45 46 46 46 47 47 46 46 45 45 44 43 42 42 41 41 40 40 40 40 38 37 36 36 36 36
27 28 29 30 31 33 34 35 37 38 40 41 42 43 44 44 45 45 45 46 45 44 43 43 42 41 40 39 38 37 36 37 36 35 35 35 34 34 33 33 33 33 33
27 28 30 31 33 34 35 37 38 40 41 41 42 42 43 43 43 43 43 42 41 41 41 39 38 36 35 34 33 32 33 32 32 31 31 30 30 30 29 29 28 28 28
28 29 31 33 34 35 36 38 39 39 40 40 41 41 41 41 40 39 39 38 37 36 35 34 33 32 31 30 30 30 29 28 27 27 27 27 26 25 24 24 24 24 24
30 31 33 34 35 36 37 38 38 38 38 38 38 38 37 36 35 34 33 33 32 32 31 30 30 29 29 28 27 27 26 26 25 25 24 24 23 23 22 22 21 21 20
32 33 34 34 35 35 35 35 35 35 35 35 34 34 33 32 31 30 30 29 29 28 27 27 26 26 26 25 25 25 24 24 23 23 22 22 21 21 20 20 19 19 18
Wind_Direction
228 221 218 215 213 215 217 217 219 222 225 229 232 234 237 243 246 248 252 257 259 261 263 264 265 267 270 272 275 278 280 283 285 287 288 289 290 291 292 291 290 290 291
233 228 228 224 223 222 222 221 223 226 227 230 235 237 239 245 249 253 255 260 262 264 266 267 269 270 272 273 275 277 280 282 283 284 286 287 288 289 290 290 289 288 288
238 238 240 233 227 225 224 224 226 229 231 234 237 238 242 247 252 256 258 262 265 267 268 269 270 270 272 274 275 277 279 281 282 283 284 285 286 287 287 288 288 288 287
242 242 246 237 233 232 230 230 232 233 235 238 241 245 248 252 256 259 261 263 266 269 270 271 272 272 273 274 275 277 278 281 282 283 283 284 284 285 285 285 286 286 286
250 251 252 246 243 241 237 233 235 239 243 248 251 253 255 258 260 262 264 266 268 271 272 272 274 274 275 276 277 279 280 281 282 283 283 283 283 283 283 284 285 285 285
253 253 253 248 246 244 242 240 241 245 250 255 258 259 260 261 263 265 269 271 272 273 274 275 275 275 275 277 279 280 281 281 282 282 283 283 283 283 283 283 283 283 283
258 254 252 250 247 246 248 249 250 253 256 257 258 260 263 264 266 269 273 274 275 275 276 277 277 277 277 279 281 281 281 281 283 283 283 283 283 283 283 283 283 283 283
259 258 256 255 253 250 251 253 258 261 261 261 263 266 269 270 270 271 274 277 277 278 279 280 280 280 280 280 281 283 283 283 284 284 284 284 283 282 283 284 282 282 282
261 258 255 256 257 258 257 259 261 264 267 268 269 270 273 275 276 276 278 279 280 281 281 281 281 281 282 282 282 283 284 284 284 284 284 284 283 283 283 283 283 282 282
259 259 259 261 262 260 261 264 266 267 270 273 273 274 275 277 279 281 281 283 283 284 283 282 282 282 283 284 285 285 284 284 284 283 283 283 283 283 283 283 283 283 283
260 262 264 266 267 266 268 270 270 272 274 275 277 278 278 279 281 283 284 284 285 285 285 285 284 283 283 284 285 285 285 285 284 284 284 284 283 282 282 282 283 283 282
264 264 265 267 270 270 270 272 273 275 276 277 278 279 280 281 282 284 285 285 286 286 286 286 286 286 285 285 285 286 286 286 285 284 284 284 284 283 283 282 282 282 282
266 267 268 270 274 275 275 274 275 276 277 279 281 282 283 284 284 285 286 287 288 289 289 289 289 288 287 287 288 287 287 286 285 285 284 284 284 283 282 282 282 282 282
268 268 271 273 275 277 276 275 275 277 281 282 284 285 285 286 287 287 288 288 289 290 290 290 290 290 289 289 289 288 288 287 286 286 285 284 284 283 282 282 281 281 281
268 269 272 273 275 276 276 278 280 282 284 286 285 286 287 288 289 289 289 289 290 290 290 290 290 290 289 289 289 289 289 288 287 286 285 285 284 283 283 282 282 281 281
267 271 274 276 278 279 279 281 282 283 285 286 287 288 289 290 290 291 291 291 291 291 291 291 291 291 291 291 291 290 289 289 288 287 286 285 285 284 283 283 283 282 281
268 272 276 279 280 281 281 282 284 285 287 287 288 289 290 291 292 292 292 292 292 292 292 292 292 292 292 291 291 291 290 289 288 287 286 286 285 285 284 283 282 281 281
273 276 280 282 282 281 282 285 286 287 287 288 289 289 291 292 292 293 293 293 293 293 293 293 293 293 292 292 291 291 289 288 288 288 287 287 287 287 286 284 283 282 281
277 280 281 283 284 284 285 287 287 288 289 290 291 292 293 294 294 294 294 295 295 295 295 294 294 294 294 293 292 291 290 288 288 287 287 288 288 288 287 286 284 283 283
280 281 283 284 285 286 288 289 291 292 293 295 296 296 296 296 296 296 296 296 296 296 296 296 296 295 295 294 292 291 290 289 289 288 289 289 289 288 288 287 286 284 282
285 286 288 289 291 292 294 295 296 296 297 298 298 297 297 297 297 297 297 298 298 298 298 298 297 296 296 295 294 293 293 293 292 291 291 291 291 290 289 289 288 286 286
289 291 293 295 296 297 297 297 297 298 298 299 298 298 298 298 298 298 298 299 299 299 299 299 299 298 298 297 296 295 296 296 295 294 293 293 292 292 293 292 290 289 288
296 298 298 298 298 298 299 299 299 299 300 300 299 299 299 299 299 299 299 300 299 299 299 300 300 300 300 300 298 299 300 300 298 297 296 296 296 295 295 295 295 294 293
300 300 300 300 300 300 300 301 301 301 301 300 300 301 301 301 301 301 302 302 302 302 302 301 301 302 302 302 302 302 303 303 303 302 301 300 299 298 299 300 300 300 299
301 301 301 301 301 301 302 302 302 302 302 302 303 303 303 304 304 305 305 305 305 305 304 304 304 304 304 303 303 305 305 304 304 305 305 304 302 302 302 303 303 302 302
303 302 302 302 302 303 303 303 303 304 304 305 305 306 306 307 307 308 308 308 308 308 307 307 307 307 307 306 306 306 307 307 306 307 307 307 306 305 304 304 305 304 304
Height
5826 5828 5829 5831 5834 5837 5840 5842 5845 5847 5850 5852 5854 5856 5858 5860 5862 5863 5864 5865 5866 5867 5867 5868 5869 5869 5869 5869 5869 5869 5869 5869 5869 5868 5868 5868 5867 5867 5866 5865 5864 5864 5863
5826 5827 5828 5830 5832 5835 5837 5840 5842 5845 5847 5849 5851 5853 5855 5856 5858 5859 5860 5861 5862 5862 5863 5863 5864 5864 5864 5864 5864 5864 5864 5863 5863 5863 5862 5862 5861 5860 5860 5859 5858 5857 5857
5825 5826 5827 5828 5830 5832 5835 5837 5839 5841 5844 5846 5847 5849 5851 5852 5854 5855 5856 5857 5857 5857 5858 5858 5858 5859 5859 5858 5858 5858 5858 5857 5857 5856 5855 5855 5854 5853 5853 5851 5850 5850 5849
5824 5824 5826 5827 5828 5830 5832 5834 5836 5838 5840 5842 5844 5845 5846 5848 5849 5850 5850 5851 5851 5852 5852 5852 5852 5852 5852 5852 5851 5851 5851 5850 5849 5848 5848 5847 5846 5845 5844 5843 5842 5841 5840
5822 5823 5824 5825 5826 5827 5829 5830 5833 5835 5836 5838 5839 5841 5842 5843 5843 5844 5845 5845 5845 5846 5846 5845 5845 5845 5845 5844 5844 5843 5842 5842 5841 5840 5839 5838 5837 5836 5835 5834 5833 5832 5831
5820 5821 5821 5822 5823 5825 5826 5827 5829 5831 5832 5834 5835 5836 5836 5837 5838 5838 5839 5839 5839 5839 5839 5838 5838 5838 5837 5837 5836 5835 5834 5833 5832 5831 5830 5829 5827 5826 5825 5824 5823 5822 5821
5817 5818 5818 5819 5820 5822 5823 5824 5825 5826 5828 5829 5829 5830 5831 5831 5832 5832 5832 5832 5832 5832 5831 5831 5830 5830 5829 5828 5827 5826 5825 5823 5822 5821 5820 5818 5817 5815 5814 5812 5811 5810 5809
5814 5815 5816 5816 5817 5818 5819 5820 5821 5822 5822 5823 5824 5824 5824 5825 5825 5825 5825 5825 5825 5824 5823 5822 5821 5821 5820 5819 5817 5816 5815 5813 5811 5809 5809 5807 5805 5803 5801 5800 5799 5797 5796
5810 5811 5812 5813 5813 5814 5815 5816 5816 5817 5817 5817 5818 5818 5818 5818 5818 5818 5818 5817 5816 5815 5814 5813 5812 5811 5810 5808 5807 5806 5804 5802 5800 5798 5797 5795 5793 5791 5789 5787 5786 5784 5783
5806 5807 5808 5809 5809 5809 5810 5811 5811 5811 5812 5812 5811 5812 5811 5811 5811 5811 5810 5809 5808 5807 5805 5804 5802 5801 5799 5797 5796 5794 5793 5791 5788 5786 5784 5782 5780 5777 5775 5773 5771 5769 5768
5802 5803 5804 5804 5804 5804 5805 5806 5805 5806 5806 5805 5805 5805 5804 5804 5803 5802 5801 5799 5798 5797 5795 5793 5791 5790 5788 5786 5784 5781 5779 5777 5775 5773 5770 5768 5766 5763 5761 5758 5756 5754 5752
5797 5798 5799 5799 5800 5800 5800 5800 5800 5799 5799 5799 5798 5797 5797 5796 5795 5793 5791 5790 5788 5786 5784 5781 5779 5777 5775 5773 5771 5768 5766 5763 5760 5758 5756 5753 5751 5748 5745 5743 5740 5738 5736
5791 5792 5792 5793 5793 5793 5793 5792 5792 5792 5791 5791 5790 5789 5788 5787 5785 5783 5781 5779 5777 5775 5772 5770 5767 5765 5762 5759 5756 5753 5751 5748 5745 5742 5740 5737 5735 5732 5729 5727 5724 5722 5719
5784 5785 5786 5786 5786 5786 5785 5785 5784 5783 5783 5782 5781 5780 5778 5777 5775 5773 5771 5768 5766 5763 5760 5757 5754 5751 5748 5745 5742 5738 5735 5732 5729 5726 5723 5720 5717 5714 5712 5709 5707 5704 5702
5778 5778 5779 5779 5778 5778 5777 5777 5776 5775 5774 5772 5771 5769 5767 5766 5763 5761 5759 5756 5753 5751 5747 5744 5740 5737 5734 5730 5727 5723 5719 5716 5712 5709 5706 5703 5700 5697 5694 5691 5688 5685 5683
5771 5771 5771 5771 5771 5771 5770 5768 5767 5766 5764 5763 5761 5759 5757 5754 5752 5749 5746 5743 5740 5737 5733 5730 5726 5722 5718 5714 5710 5706 5702 5698 5695 5691 5687 5684 5681 5678 5675 5672 5669 5667 5664
5764 5764 5764 5763 5763 5762 5761 5760 5758 5757 5755 5753 5751 5748 5746 5743 5740 5737 5734 5730 5727 5723 5719 5715 5710 5706 5702 5698 5693 5689 5685 5680 5677 5673 5669 5666 5662 5659 5656 5654 5651 5648 5646
5757 5757 5756 5756 5755 5753 5752 5750 5749 5747 5745 5743 5740 5737 5735 5732 5728 5724 5721 5716 5712 5708 5704 5699 5695 5690 5686 5681 5676 5672 5667 5663 5659 5655 5652 5649 5645 5642 5639 5636 5633 5630 5629
5750 5750 5749 5748 5746 5744 5742 5740 5738 5736 5734 5732 5729 5726 5722 5719 5715 5711 5707 5703 5698 5693 5689 5684 5679 5674 5669 5664 5660 5655 5651 5647 5643 5639 5636 5633 5629 5626 5623 5620 5617 5615 5613
5743 5742 5740 5739 5737 5735 5733 5731 5728 5726 5723 5720 5716 5713 5709 5705 5702 5697 5693 5689 5684 5679 5674 5669 5663 5658 5653 5648 5644 5640 5636 5632 5628 5625 5622 5619 5615 5612 5609 5606 5603 5601 5599
5735 5733 5731 5730 5728 5725 5723 5720 5717 5715 5711 5708 5704 5700 5696 5692 5688 5683 5679 5674 5670 5665 5660 5654 5649 5644 5639 5634 5630 5626 5622 5619 5615 5612 5609 5606 5602 5599 5597 5594 5592 5590 5588
5726 5725 5723 5721 5719 5716 5713 5710 5707 5704 5700 5696 5692 5688 5683 5679 5674 5670 5665 5660 5656 5651 5646 5641 5636 5631 5626 5622 5618 5615 5611 5607 5604 5601 5598 5595 5592 5589 5587 5584 5582 5579 5577
5718 5716 5714 5711 5709 5706 5703 5700 5696 5692 5688 5684 5680 5676 5671 5666 5662 5657 5652 5648 5643 5638 5633 5629 5624 5620 5615 5612 5608 5605 5601 5598 5594 5591 5588 5585 5583 5580 5578 5576 5573 5570 5568
5710 5707 5705 5702 5699 5696 5692 5689 5685 5681 5676 5672 5668 5663 5659 5654 5650 5645 5640 5636 5631 5627 5622 5618 5614 5610 5606 5603 5599 5596 5592 5589 5586 5583 5580 5578 5575 5573 5570 5568 5566 5563 5561
5701 5698 5696 5693 5689 5686 5682 5678 5674 5670 5665 5661 5656 5652 5647 5643 5639 5634 5630 5626 5622 5617 5613 5609 5605 5602 5598 5595 5592 5588 5585 5582 5579 5576 5574 5571 5569 5566 5564 5562 5559 5557 5555
5692 5689 5686 5682 5679 5675 5671 5667 5663 5659 5655 5650 5646 5642 5637 5633 5629 5625 5621 5617 5613 5609 5605 5602 5598 5595 5591 5588 5585 5582 5579 5576 5573 5570 5568 5565 5563 5561 5559 5556 5554 5552 5550